TimeCDT,TemperatureF,Dew PointF,Humidity,Sea Level PressureIn,VisibilityMPH,Wind Direction,Wind SpeedMPH,Gust SpeedMPH,PrecipitationIn,Events,Conditions,WindDirDegrees,DateUTC
12:53 AM,23.0,18.0,81,30.27,10.0,East,3.5,-,N/A,,Clear,80,2014-04-16 05:53:00
1:53 AM,24.1,18.0,77,30.29,10.0,Calm,Calm,-,N/A,,Clear,0,2014-04-16 06:53:00
2:53 AM,23.0,16.0,74,30.30,10.0,East,3.5,-,N/A,,Clear,100,2014-04-16 07:53:00
3:53 AM,25.0,16.0,69,30.32,10.0,SE,3.5,-,N/A,,Clear,140,2014-04-16 08:53:00
4:53 AM,25.0,17.1,72,30.32,10.0,SSE,5.8,-,N/A,,Clear,150,2014-04-16 09:53:00
5:53 AM,26.1,18.0,71,30.33,10.0,SSE,8.1,-,N/A,,Clear,150,2014-04-16 10:53:00
6:53 AM,27.0,19.0,72,30.35,10.0,SSE,8.1,-,N/A,,Clear,150,2014-04-16 11:53:00
7:53 AM,30.0,21.0,69,30.37,10.0,SSE,9.2,-,N/A,,Clear,150,2014-04-16 12:53:00
8:53 AM,34.0,21.0,59,30.38,10.0,SSE,13.8,-,N/A,,Clear,150,2014-04-16 13:53:00
9:53 AM,39.0,21.0,49,30.38,10.0,South,12.7,-,N/A,,Clear,170,2014-04-16 14:53:00
10:53 AM,41.0,19.9,43,30.37,10.0,SSE,15.0,23.0,N/A,,Clear,160,2014-04-16 15:53:00
11:53 AM,44.1,19.9,38,30.35,10.0,SSE,16.1,25.3,N/A,,Clear,160,2014-04-16 16:53:00
1:53 PM,46.9,19.0,33,30.30,10.0,SSE,19.6,26.5,N/A,,Clear,150,2014-04-16 18:53:00
2:53 PM,46.9,19.0,33,30.28,10.0,SSE,18.4,27.6,N/A,,Clear,150,2014-04-16 19:53:00
3:53 PM,48.9,19.9,32,30.25,10.0,South,17.3,31.1,N/A,,Clear,170,2014-04-16 20:53:00
4:53 PM,48.9,19.9,32,30.22,10.0,SE,17.3,27.6,N/A,,Clear,140,2014-04-16 21:53:00
5:53 PM,48.9,19.9,32,30.21,10.0,SSE,16.1,26.5,N/A,,Clear,160,2014-04-16 22:53:00
6:53 PM,46.9,21.0,36,30.22,10.0,SSE,12.7,20.7,N/A,,Clear,150,2014-04-16 23:53:00
7:53 PM,45.0,21.9,40,30.21,10.0,SE,12.7,-,N/A,,Clear,140,2014-04-17 00:53:00
8:53 PM,43.0,23.0,45,30.22,10.0,SE,11.5,-,N/A,,Clear,130,2014-04-17 01:53:00
9:53 PM,42.1,23.0,47,30.22,10.0,SE,10.4,-,N/A,,Clear,130,2014-04-17 02:53:00
10:53 PM,41.0,24.1,51,30.20,10.0,SE,12.7,20.7,N/A,,Clear,140,2014-04-17 03:53:00
11:53 PM,39.9,24.1,53,30.23,10.0,SE,11.5,-,N/A,,Clear,140,2014-04-17 04:53:00